Location: Unspecified
(0.0000°N, 0.0000°E)
Time: 19:17:52
(UTC+00:00)

CZ-4C DEB - Visible Passes

Search period start: 14 January 2025 00:00
Search period end: 24 January 2025 00:00
Orbit: 611 x 667 km, 97.7° (Epoch: 14 January)

Date Brightness Start Highest point End Pass type
(mag) Time Alt. Az. Time Alt. Az. Time Alt. Az.
14 Jan ? 18:56:42 10° S 19:01:06 54° W 19:05:32 10° NNW visible
15 Jan ? 19:20:30 10° SSW 19:24:14 26° WSW 19:27:58 10° NW visible
16 Jan ? 19:45:28 10° SW 19:47:20 12° WSW 19:49:13 10° WNW visible
17 Jan ? 18:29:43 10° SSE 18:34:12 63° ENE 18:38:42 10° N visible
18 Jan ? 18:52:50 10° S 18:57:18 60° WSW 19:01:48 10° NNW visible
19 Jan ? 19:16:30 10° SSW 19:20:24 28° WSW 19:24:19 10° NW visible
20 Jan ? 19:41:08 10° SW 19:43:28 14° WSW 19:45:50 10° WNW visible
22 Jan ? 18:48:52 10° S 18:53:23 68° WSW 18:57:56 10° NNW visible
23 Jan ? 19:12:25 10° SSW 19:16:27 32° WSW 19:20:30 10° NW visible
